Time,TemperatureF,DewpointF,PressureIn,WindDirection,WindDirectionDegrees,WindSpeedMPH,WindSpeedGustMPH,Humidity,HourlyPrecipIn,Conditions,Clouds,dailyrainin,SoftwareType,DateUTC
2013-01-30 00:00:00,42.3,41.2,30.02,East,88,1.0,2.0,96,0.00,,,0.03,meteohub,2013-01-30 05:00:00,
2013-01-30 00:02:00,42.1,41.0,30.02,East,88,0.0,2.0,96,0.00,,,0.03,meteohub,2013-01-30 05:02:00,
2013-01-30 00:03:00,42.1,41.0,30.02,East,88,0.0,2.0,96,0.00,,,0.03,meteohub,2013-01-30 05:03:00,
2013-01-30 00:08:00,41.9,41.2,30.01,East,87,2.0,2.0,97,0.00,,,0.00,meteohub,2013-01-30 05:08:00,
2013-01-30 00:13:00,41.5,40.5,30.00,East,87,0.0,3.0,96,0.00,,,0.00,meteohub,2013-01-30 05:13:00,
2013-01-30 00:18:00,41.2,40.1,30.00,East,88,0.0,3.0,96,0.00,,,0.00,meteohub,2013-01-30 05:18:00,
2013-01-30 00:23:00,41.2,40.5,29.99,East,87,0.0,3.0,97,0.00,,,0.00,meteohub,2013-01-30 05:23:00,
2013-01-30 00:28:00,41.0,40.3,29.99,East,88,0.0,3.0,97,0.00,,,0.00,meteohub,2013-01-30 05:28:00,
2013-01-30 00:33:00,40.6,39.6,29.99,East,88,0.0,3.0,96,0.00,,,0.00,meteohub,2013-01-30 05:33:00,
2013-01-30 00:38:00,40.3,39.2,29.99,East,88,1.0,3.0,96,0.00,,,0.00,meteohub,2013-01-30 05:38:00,
2013-01-30 00:43:00,40.3,39.2,29.99,East,88,0.0,2.0,96,0.00,,,0.00,meteohub,2013-01-30 05:43:00,
2013-01-30 00:48:00,40.1,39.4,29.99,East,87,0.0,2.0,97,0.00,,,0.00,meteohub,2013-01-30 05:48:00,
2013-01-30 00:53:00,39.9,39.2,29.99,East,88,0.0,1.0,97,0.00,,,0.00,meteohub,2013-01-30 05:53:00,
2013-01-30 00:59:00,39.9,39.2,29.98,East,87,0.0,3.0,97,0.00,,,0.00,meteohub,2013-01-30 05:59:00,
2013-01-30 01:04:00,39.9,39.2,29.98,East,87,0.0,3.0,97,0.00,,,0.00,meteohub,2013-01-30 06:04:00,
2013-01-30 01:09:00,40.3,39.6,29.98,East,87,2.0,3.0,97,0.00,,,0.00,meteohub,2013-01-30 06:09:00,
2013-01-30 01:14:00,39.9,39.2,29.98,East,87,0.0,3.0,97,0.00,,,0.00,meteohub,2013-01-30 06:14:00,
2013-01-30 01:19:00,40.3,39.6,29.98,East,87,0.0,3.0,97,0.00,,,0.00,meteohub,2013-01-30 06:19:00,
2013-01-30 01:24:00,40.5,39.7,29.98,East,87,0.0,3.0,97,0.00,,,0.00,meteohub,2013-01-30 06:24:00,
2013-01-30 01:29:00,40.6,39.9,29.98,East,87,0.0,2.0,97,0.00,,,0.00,meteohub,2013-01-30 06:29:00,
2013-01-30 01:34:00,40.6,39.9,29.98,East,87,0.0,2.0,97,0.00,,,0.00,meteohub,2013-01-30 06:34:00,
2013-01-30 01:39:00,40.6,39.9,29.98,East,87,0.0,2.0,97,0.00,,,0.00,meteohub,2013-01-30 06:39:00,
2013-01-30 01:44:00,40.5,39.7,29.97,East,87,0.0,2.0,97,0.00,,,0.00,meteohub,2013-01-30 06:44:00,
2013-01-30 01:49:00,40.5,39.7,29.96,East,87,0.0,1.0,97,0.00,,,0.00,meteohub,2013-01-30 06:49:00,
2013-01-30 01:54:00,40.6,39.9,29.96,East,87,0.0,1.0,97,0.00,,,0.00,meteohub,2013-01-30 06:54:00,
2013-01-30 01:59:00,40.6,39.9,29.96,East,87,2.0,2.0,97,0.00,,,0.00,meteohub,2013-01-30 06:59:00,
2013-01-30 02:04:00,41.0,40.5,29.96,East,87,0.0,2.0,98,0.00,,,0.00,meteohub,2013-01-30 07:04:00,
2013-01-30 02:09:00,41.2,40.6,29.96,East,87,2.0,2.0,98,0.00,,,0.00,meteohub,2013-01-30 07:09:00,
2013-01-30 02:14:00,41.2,40.5,29.96,East,87,0.0,3.0,97,0.00,,,0.00,meteohub,2013-01-30 07:14:00,
2013-01-30 02:19:00,41.0,40.3,29.96,East,87,0.0,3.0,97,0.00,,,0.00,meteohub,2013-01-30 07:19:00,
2013-01-30 02:24:00,41.2,40.6,29.95,East,87,0.0,3.0,98,0.00,,,0.00,meteohub,2013-01-30 07:24:00,
2013-01-30 02:29:00,41.2,40.6,29.95,East,87,1.0,2.0,98,0.00,,,0.00,meteohub,2013-01-30 07:29:00,
2013-01-30 02:34:00,41.5,41.0,29.95,East,87,0.0,2.0,98,0.00,,,0.00,meteohub,2013-01-30 07:34:00,
2013-01-30 02:39:00,41.7,41.2,29.95,East,87,0.0,2.0,98,0.00,,,0.00,meteohub,2013-01-30 07:39:00,
2013-01-30 02:44:00,41.7,41.2,29.95,East,87,0.0,3.0,98,0.00,,,0.00,meteohub,2013-01-30 07:44:00,
2013-01-30 02:49:00,41.7,41.2,29.95,East,87,0.0,3.0,98,0.00,,,0.00,meteohub,2013-01-30 07:49:00,
2013-01-30 02:54:00,41.7,41.2,29.94,East,87,2.0,3.0,98,0.00,,,0.00,meteohub,2013-01-30 07:54:00,
2013-01-30 02:59:00,41.7,41.2,29.94,East,87,0.0,2.0,98,0.00,,,0.00,meteohub,2013-01-30 07:59:00,
2013-01-30 03:04:00,41.7,41.2,29.93,East,87,1.0,2.0,98,0.00,,,0.00,meteohub,2013-01-30 08:04:00,
2013-01-30 03:09:00,41.7,41.2,29.93,East,87,2.0,2.0,98,0.00,,,0.00,meteohub,2013-01-30 08:09:00,
2013-01-30 03:14:00,41.7,41.2,29.93,East,87,1.0,2.0,98,0.00,,,0.00,meteohub,2013-01-30 08:14:00,
2013-01-30 03:19:00,41.9,41.4,29.92,East,87,0.0,2.0,98,0.00,,,0.00,meteohub,2013-01-30 08:19:00,
2013-01-30 03:24:00,41.9,41.4,29.92,East,87,0.0,2.0,98,0.00,,,0.00,meteohub,2013-01-30 08:24:00,
2013-01-30 03:29:00,42.1,41.5,29.92,East,87,0.0,3.0,98,0.00,,,0.00,meteohub,2013-01-30 08:29:00,
2013-01-30 03:34:00,41.9,41.4,29.91,East,87,2.0,3.0,98,0.00,,,0.00,meteohub,2013-01-30 08:34:00,
2013-01-30 03:39:00,41.9,41.4,29.90,East,87,0.0,3.0,98,0.00,,,0.00,meteohub,2013-01-30 08:39:00,
2013-01-30 03:44:00,41.7,41.2,29.90,East,87,0.0,2.0,98,0.00,,,0.00,meteohub,2013-01-30 08:44:00,
2013-01-30 03:49:00,41.9,41.4,29.90,East,87,0.0,2.0,98,0.00,,,0.00,meteohub,2013-01-30 08:49:00,
2013-01-30 03:54:00,42.1,41.5,29.90,East,87,2.0,2.0,98,0.00,,,0.00,meteohub,2013-01-30 08:54:00,
2013-01-30 03:59:00,42.3,41.7,29.90,ENE,60,2.0,2.0,98,0.00,,,0.00,meteohub,2013-01-30 08:59:00,
2013-01-30 04:05:00,42.3,41.7,29.90,ENE,61,0.0,4.0,98,0.00,,,0.00,meteohub,2013-01-30 09:05:00,
2013-01-30 04:10:00,42.3,41.7,29.89,NE,46,1.0,4.0,98,0.00,,,0.00,meteohub,2013-01-30 09:10:00,
2013-01-30 04:15:00,42.3,41.7,29.89,NE,46,0.0,4.0,98,0.00,,,0.00,meteohub,2013-01-30 09:15:00,
2013-01-30 04:20:00,42.3,41.7,29.89,NE,46,0.0,3.0,98,0.00,,,0.00,meteohub,2013-01-30 09:20:00,
2013-01-30 04:25:00,42.4,41.9,29.89,NE,46,0.0,3.0,98,0.00,,,0.00,meteohub,2013-01-30 09:25:00,
2013-01-30 04:30:00,42.4,41.9,29.89,NE,46,0.0,3.0,98,0.00,,,0.00,meteohub,2013-01-30 09:30:00,
2013-01-30 04:35:00,42.4,41.9,29.89,NE,46,0.0,3.0,98,0.00,,,0.00,meteohub,2013-01-30 09:35:00,
2013-01-30 04:40:00,42.4,41.9,29.89,NE,46,1.0,3.0,98,0.00,,,0.00,meteohub,2013-01-30 09:40:00,
2013-01-30 04:45:00,42.4,41.9,29.90,NE,46,0.0,2.0,98,0.00,,,0.00,meteohub,2013-01-30 09:45:00,
2013-01-30 04:50:00,42.3,41.7,29.89,NE,46,0.0,2.0,98,0.00,,,0.00,meteohub,2013-01-30 09:50:00,
2013-01-30 04:55:00,42.3,41.7,29.89,NE,46,0.0,2.0,98,0.00,,,0.00,meteohub,2013-01-30 09:55:00,
2013-01-30 05:00:00,42.3,41.7,29.89,NE,46,0.0,2.0,98,0.00,,,0.00,meteohub,2013-01-30 10:00:00,
2013-01-30 05:05:00,42.3,41.7,29.88,NE,46,0.0,2.0,98,0.00,,,0.00,meteohub,2013-01-30 10:05:00,
2013-01-30 05:10:00,42.1,41.5,29.88,NE,46,0.0,2.0,98,0.00,,,0.00,meteohub,2013-01-30 10:10:00,
2013-01-30 05:15:00,41.9,41.4,29.87,NE,46,0.0,2.0,98,0.00,,,0.00,meteohub,2013-01-30 10:15:00,
2013-01-30 05:20:00,41.5,41.0,29.87,NE,46,0.0,2.0,98,0.00,,,0.00,meteohub,2013-01-30 10:20:00,
2013-01-30 05:25:00,41.7,41.2,29.87,NE,46,0.0,2.0,98,0.00,,,0.00,meteohub,2013-01-30 10:25:00,
2013-01-30 05:30:00,41.4,40.8,29.87,NE,46,0.0,2.0,98,0.00,,,0.00,meteohub,2013-01-30 10:30:00,
2013-01-30 05:35:00,41.2,40.6,29.86,NE,46,1.0,2.0,98,0.00,,,0.00,meteohub,2013-01-30 10:35:00,
2013-01-30 05:40:00,40.8,40.3,29.87,NE,46,0.0,2.0,98,0.00,,,0.00,meteohub,2013-01-30 10:40:00,
2013-01-30 05:45:00,40.6,40.1,29.87,NE,46,0.0,2.0,98,0.00,,,0.00,meteohub,2013-01-30 10:45:00,
2013-01-30 05:50:00,40.6,40.1,29.87,NE,46,0.0,2.0,98,0.00,,,0.00,meteohub,2013-01-30 10:50:00,
2013-01-30 05:55:00,40.8,40.3,29.86,NE,46,0.0,2.0,98,0.00,,,0.00,meteohub,2013-01-30 10:55:00,
2013-01-30 06:00:00,41.4,40.8,29.86,ENE,69,0.0,3.0,98,0.00,,,0.00,meteohub,2013-01-30 11:00:00,
2013-01-30 06:05:00,41.9,41.4,29.86,ENE,69,0.0,3.0,98,0.00,,,0.00,meteohub,2013-01-30 11:05:00,
2013-01-30 06:10:00,42.4,42.3,29.86,ENE,69,1.0,3.0,99,0.00,,,0.00,meteohub,2013-01-30 11:10:00,
2013-01-30 06:15:00,43.5,43.3,29.86,SW,227,1.0,3.0,99,0.00,,,0.00,meteohub,2013-01-30 11:15:00,
2013-01-30 06:20:00,44.6,44.4,29.86,SSW,199,0.0,4.0,99,0.00,,,0.00,meteohub,2013-01-30 11:20:00,
2013-01-30 06:25:00,45.0,44.8,29.85,SSW,199,0.0,4.0,99,0.00,,,0.00,meteohub,2013-01-30 11:25:00,
2013-01-30 06:30:00,45.3,45.1,29.85,SSW,199,0.0,4.0,99,0.00,,,0.00,meteohub,2013-01-30 11:30:00,
2013-01-30 06:35:00,45.5,45.3,29.85,SSW,199,0.0,2.0,99,0.00,,,0.00,meteohub,2013-01-30 11:35:00,
2013-01-30 06:40:00,46.0,45.9,29.85,SSW,200,1.0,3.0,99,0.00,,,0.00,meteohub,2013-01-30 11:40:00,
2013-01-30 06:45:00,46.8,46.6,29.85,SSW,199,0.0,5.0,99,0.00,,,0.00,meteohub,2013-01-30 11:45:00,
2013-01-30 06:50:00,47.5,47.3,29.85,SSW,199,0.0,5.0,99,0.00,,,0.00,meteohub,2013-01-30 11:50:00,
2013-01-30 06:55:00,48.0,48.0,29.85,SSW,199,2.0,5.0,100,0.00,,,0.00,meteohub,2013-01-30 11:55:00,
2013-01-30 07:00:00,48.7,48.6,29.85,SSW,198,2.0,4.0,99,0.00,,,0.00,meteohub,2013-01-30 12:00:00,
2013-01-30 07:05:00,49.3,49.3,29.84,SSW,198,2.0,4.0,100,0.00,,,0.00,meteohub,2013-01-30 12:05:00,
2013-01-30 07:11:00,49.6,49.6,29.84,SSW,198,1.0,4.0,100,0.00,,,0.00,meteohub,2013-01-30 12:11:00,
2013-01-30 07:16:00,50.2,50.2,29.84,SSW,194,4.0,6.0,100,0.00,,,0.00,meteohub,2013-01-30 12:16:00,
2013-01-30 07:21:00,50.2,50.2,29.84,SSW,195,4.0,6.0,100,0.00,,,0.00,meteohub,2013-01-30 12:21:00,
2013-01-30 07:26:00,50.5,50.5,29.84,SSW,195,2.0,6.0,100,0.00,,,0.00,meteohub,2013-01-30 12:26:00,
2013-01-30 07:31:00,50.5,50.5,29.83,SSW,192,0.0,4.0,100,0.00,,,0.00,meteohub,2013-01-30 12:31:00,
2013-01-30 07:36:00,50.5,50.5,29.83,SSW,192,0.0,4.0,100,0.00,,,0.00,meteohub,2013-01-30 12:36:00,
2013-01-30 07:41:00,50.5,50.5,29.83,SSW,208,0.0,3.0,100,0.00,,,0.00,meteohub,2013-01-30 12:41:00,
2013-01-30 07:46:00,51.1,51.1,29.83,South,175,2.0,5.0,100,0.00,,,0.00,meteohub,2013-01-30 12:46:00,
2013-01-30 07:51:00,51.3,51.3,29.82,South,178,4.0,5.0,100,0.00,,,0.00,meteohub,2013-01-30 12:51:00,
2013-01-30 07:56:00,51.4,51.4,29.82,South,182,0.0,5.0,100,0.00,,,0.00,meteohub,2013-01-30 12:56:00,
2013-01-30 08:01:00,51.4,51.4,29.82,SSE,158,0.0,5.0,100,0.00,,,0.00,meteohub,2013-01-30 13:01:00,
2013-01-30 08:06:00,51.3,51.3,29.82,SSE,157,2.0,5.0,100,0.00,,,0.00,meteohub,2013-01-30 13:06:00,
2013-01-30 08:11:00,51.1,51.1,29.82,SSE,153,1.0,4.0,100,0.00,,,0.00,meteohub,2013-01-30 13:11:00,
2013-01-30 08:16:00,50.7,50.4,29.82,SSE,153,0.0,4.0,99,0.00,,,0.00,meteohub,2013-01-30 13:16:00,
2013-01-30 08:21:00,50.5,50.5,29.83,South,169,2.0,4.0,100,0.00,,,0.00,meteohub,2013-01-30 13:21:00,
2013-01-30 08:26:00,50.5,50.5,29.83,South,170,0.0,3.0,100,0.00,,,0.00,meteohub,2013-01-30 13:26:00,
2013-01-30 08:31:00,50.7,50.7,29.83,South,170,0.0,3.0,100,0.00,,,0.00,meteohub,2013-01-30 13:31:00,
2013-01-30 08:36:00,50.7,50.4,29.83,SSE,165,0.0,4.0,99,0.00,,,0.00,meteohub,2013-01-30 13:36:00,
2013-01-30 08:41:00,50.7,50.4,29.83,SSE,156,0.0,4.0,99,0.00,,,0.00,meteohub,2013-01-30 13:41:00,
2013-01-30 08:46:00,50.5,50.5,29.82,South,180,2.0,4.0,100,0.00,,,0.00,meteohub,2013-01-30 13:46:00,
2013-01-30 08:51:00,50.7,50.4,29.81,South,184,0.0,5.0,99,0.00,,,0.00,meteohub,2013-01-30 13:51:00,
2013-01-30 08:56:00,51.1,51.1,29.81,South,169,0.0,5.0,100,0.00,,,0.00,meteohub,2013-01-30 13:56:00,
2013-01-30 09:01:00,51.4,51.4,29.81,SE,142,0.0,5.0,100,0.00,,,0.00,meteohub,2013-01-30 14:01:00,
2013-01-30 09:06:00,51.8,51.8,29.79,ESE,109,0.0,4.0,100,0.00,,,0.00,meteohub,2013-01-30 14:06:00,
2013-01-30 09:11:00,52.0,52.0,29.79,WSW,242,0.0,4.0,100,0.00,,,0.00,meteohub,2013-01-30 14:11:00,
2013-01-30 09:16:00,52.3,52.3,29.79,South,191,4.0,8.0,100,0.00,,,0.00,meteohub,2013-01-30 14:16:00,
2013-01-30 09:21:00,52.9,52.9,29.78,South,188,4.0,8.0,100,0.00,,,0.00,meteohub,2013-01-30 14:21:00,
2013-01-30 09:26:00,53.2,53.2,29.78,SW,227,4.0,8.0,100,0.00,,,0.00,meteohub,2013-01-30 14:26:00,
2013-01-30 09:31:00,53.4,53.4,29.78,South,172,6.0,10.0,100,0.00,,,0.00,meteohub,2013-01-30 14:31:00,
2013-01-30 09:36:00,53.6,53.6,29.79,SSW,203,4.0,10.0,100,0.00,,,0.00,meteohub,2013-01-30 14:36:00,
2013-01-30 09:41:00,53.8,53.8,29.78,South,185,5.0,10.0,100,0.00,,,0.00,meteohub,2013-01-30 14:41:00,
2013-01-30 09:46:00,54.0,54.0,29.78,SSE,151,4.0,8.0,100,0.00,,,0.00,meteohub,2013-01-30 14:46:00,
2013-01-30 09:51:00,54.0,54.0,29.78,South,169,2.0,12.0,100,0.00,,,0.00,meteohub,2013-01-30 14:51:00,
2013-01-30 09:56:00,54.1,54.1,29.77,South,171,6.0,12.0,100,0.00,,,0.00,meteohub,2013-01-30 14:56:00,
2013-01-30 10:01:00,54.5,54.5,29.77,South,184,4.0,12.0,100,0.00,,,0.00,meteohub,2013-01-30 15:01:00,
2013-01-30 10:06:00,54.9,54.9,29.77,SSW,195,3.0,8.0,100,0.00,,,0.00,meteohub,2013-01-30 15:06:00,
2013-01-30 10:11:00,55.2,55.2,29.76,South,171,5.0,9.0,100,0.00,,,0.00,meteohub,2013-01-30 15:11:00,
2013-01-30 10:16:00,55.8,55.8,29.76,SSW,213,0.0,9.0,100,0.00,,,0.00,meteohub,2013-01-30 15:16:00,
2013-01-30 10:21:00,55.9,55.9,29.75,South,189,6.0,11.0,100,0.00,,,0.00,meteohub,2013-01-30 15:21:00,
2013-01-30 10:26:00,56.3,56.3,29.75,SSW,197,2.0,11.0,100,0.00,,,0.00,meteohub,2013-01-30 15:26:00,
2013-01-30 10:31:00,56.5,56.5,29.75,South,188,6.0,11.0,100,0.00,,,0.00,meteohub,2013-01-30 15:31:00,
2013-01-30 10:36:00,56.8,56.8,29.75,SSW,199,5.0,10.0,100,0.00,,,0.00,meteohub,2013-01-30 15:36:00,
2013-01-30 10:42:00,57.0,57.0,29.75,SW,217,8.0,10.0,100,0.00,,,0.00,meteohub,2013-01-30 15:42:00,
2013-01-30 10:47:00,57.4,57.0,29.75,SSE,159,2.0,11.0,99,0.00,,,0.00,meteohub,2013-01-30 15:47:00,
2013-01-30 10:52:00,57.6,57.2,29.74,South,184,6.0,11.0,99,0.00,,,0.00,meteohub,2013-01-30 15:52:00,
2013-01-30 10:57:00,57.7,57.4,29.73,SSW,206,6.0,11.0,99,0.00,,,0.00,meteohub,2013-01-30 15:57:00,
2013-01-30 11:02:00,57.9,57.6,29.73,South,184,6.0,11.0,99,0.00,,,0.00,meteohub,2013-01-30 16:02:00,
2013-01-30 11:07:00,58.1,57.7,29.73,SSW,210,4.0,13.0,99,0.00,,,0.00,meteohub,2013-01-30 16:07:00,
2013-01-30 11:12:00,58.5,58.1,29.73,SSW,199,7.0,13.0,99,0.00,,,0.00,meteohub,2013-01-30 16:12:00,
2013-01-30 11:17:00,58.6,58.1,29.72,SW,232,7.0,13.0,98,0.00,,,0.00,meteohub,2013-01-30 16:17:00,
2013-01-30 11:22:00,59.0,59.0,29.72,SSW,194,7.0,12.0,100,0.00,,,0.00,meteohub,2013-01-30 16:22:00,
2013-01-30 11:27:00,59.0,58.5,29.71,South,186,5.0,12.0,98,0.00,,,0.00,meteohub,2013-01-30 16:27:00,
2013-01-30 11:32:00,59.0,58.1,29.71,SSW,195,6.0,12.0,97,0.00,,,0.00,meteohub,2013-01-30 16:32:00,
2013-01-30 11:37:00,59.4,58.5,29.71,SW,230,4.0,9.0,97,0.00,,,0.00,meteohub,2013-01-30 16:37:00,
2013-01-30 11:42:00,59.5,58.6,29.70,South,177,5.0,10.0,97,0.00,,,0.00,meteohub,2013-01-30 16:42:00,
2013-01-30 11:47:00,59.7,58.6,29.71,South,175,4.0,12.0,96,0.00,,,0.00,meteohub,2013-01-30 16:47:00,
2013-01-30 11:52:00,59.7,58.6,29.70,SW,221,7.0,12.0,96,0.00,,,0.00,meteohub,2013-01-30 16:52:00,
2013-01-30 11:57:00,59.9,58.5,29.70,SSW,197,4.0,12.0,95,0.00,,,0.00,meteohub,2013-01-30 16:57:00,
2013-01-30 12:02:00,60.1,58.6,29.70,South,191,5.0,12.0,95,0.00,,,0.00,meteohub,2013-01-30 17:02:00,
2013-01-30 12:07:00,60.3,58.8,29.70,SSW,192,7.0,10.0,95,0.00,,,0.00,meteohub,2013-01-30 17:07:00,
2013-01-30 12:12:00,60.4,59.0,29.68,SSW,213,5.0,10.0,95,0.00,,,0.00,meteohub,2013-01-30 17:12:00,
2013-01-30 12:17:00,60.6,58.8,29.68,South,180,7.0,11.0,94,0.00,,,0.00,meteohub,2013-01-30 17:17:00,
2013-01-30 12:22:00,61.0,59.2,29.68,South,184,6.0,11.0,94,0.00,,,0.00,meteohub,2013-01-30 17:22:00,
2013-01-30 12:27:00,61.0,59.0,29.68,SSW,200,5.0,11.0,93,0.00,,,0.00,meteohub,2013-01-30 17:27:00,
2013-01-30 12:32:00,61.2,59.2,29.67,SSE,163,6.0,10.0,93,0.00,,,0.00,meteohub,2013-01-30 17:32:00,
2013-01-30 12:37:00,61.2,59.2,29.66,South,178,9.0,10.0,93,0.00,,,0.00,meteohub,2013-01-30 17:37:00,
2013-01-30 12:42:00,61.3,59.4,29.66,South,186,9.0,12.0,93,0.00,,,0.00,meteohub,2013-01-30 17:42:00,
2013-01-30 12:47:00,61.3,59.0,29.66,SSW,211,6.0,12.0,92,0.00,,,0.00,meteohub,2013-01-30 17:47:00,
2013-01-30 12:52:00,61.3,59.0,29.65,South,182,3.0,12.0,92,0.00,,,0.00,meteohub,2013-01-30 17:52:00,
2013-01-30 12:57:00,61.3,59.0,29.65,South,189,6.0,12.0,92,0.00,,,0.00,meteohub,2013-01-30 17:57:00,
2013-01-30 13:02:00,61.3,59.0,29.65,South,188,13.0,13.0,92,0.00,,,0.00,meteohub,2013-01-30 18:02:00,
2013-01-30 13:07:00,61.5,59.2,29.65,South,180,6.0,15.0,92,0.00,,,0.00,meteohub,2013-01-30 18:07:00,
2013-01-30 13:12:00,61.5,59.2,29.65,SSW,197,7.0,15.0,92,0.00,,,0.00,meteohub,2013-01-30 18:12:00,
2013-01-30 13:17:00,61.5,59.2,29.64,South,179,4.0,15.0,92,0.00,,,0.00,meteohub,2013-01-30 18:17:00,
2013-01-30 13:22:00,61.5,59.2,29.64,SSW,207,5.0,14.0,92,0.00,,,0.00,meteohub,2013-01-30 18:22:00,
2013-01-30 13:27:00,61.7,59.4,29.63,SSE,165,8.0,14.0,92,0.00,,,0.00,meteohub,2013-01-30 18:27:00,
2013-01-30 13:32:00,61.9,59.5,29.62,SSW,194,7.0,12.0,92,0.00,,,0.00,meteohub,2013-01-30 18:32:00,
2013-01-30 13:37:00,62.1,59.7,29.62,SSE,154,7.0,12.0,92,0.00,,,0.00,meteohub,2013-01-30 18:37:00,
2013-01-30 13:42:00,62.2,59.9,29.62,SSW,195,7.0,12.0,92,0.00,,,0.00,meteohub,2013-01-30 18:42:00,
2013-01-30 13:47:00,62.4,60.1,29.61,SW,236,8.0,13.0,92,0.00,,,0.00,meteohub,2013-01-30 18:47:00,
2013-01-30 13:52:00,62.6,59.9,29.61,SSW,199,6.0,13.0,91,0.00,,,0.00,meteohub,2013-01-30 18:52:00,
2013-01-30 13:57:00,62.8,60.1,29.61,SSW,192,5.0,13.0,91,0.00,,,0.00,meteohub,2013-01-30 18:57:00,
2013-01-30 14:02:00,62.8,60.1,29.60,South,173,6.0,12.0,91,0.00,,,0.00,meteohub,2013-01-30 19:02:00,
2013-01-30 14:07:00,62.8,60.1,29.61,South,184,9.0,15.0,91,0.00,,,0.00,meteohub,2013-01-30 19:07:00,
2013-01-30 14:12:00,62.8,60.1,29.61,South,178,7.0,15.0,91,0.00,,,0.00,meteohub,2013-01-30 19:12:00,
2013-01-30 14:17:00,62.8,60.1,29.61,South,182,8.0,15.0,91,0.00,,,0.00,meteohub,2013-01-30 19:17:00,
2013-01-30 14:22:00,62.8,60.1,29.61,SSW,200,8.0,15.0,91,0.00,,,0.00,meteohub,2013-01-30 19:22:00,
2013-01-30 14:27:00,62.8,60.1,29.61,SSW,199,10.0,15.0,91,0.00,,,0.00,meteohub,2013-01-30 19:27:00,
2013-01-30 14:32:00,62.8,60.1,29.61,SSE,158,8.0,17.0,91,0.00,,,0.00,meteohub,2013-01-30 19:32:00,
2013-01-30 14:37:00,62.8,60.1,29.60,South,182,8.0,17.0,91,0.00,,,0.00,meteohub,2013-01-30 19:37:00,
2013-01-30 14:42:00,63.0,59.9,29.60,South,185,8.0,17.0,90,0.00,,,0.00,meteohub,2013-01-30 19:42:00,
2013-01-30 14:47:00,63.1,60.1,29.61,SSE,162,11.0,15.0,90,0.00,,,0.00,meteohub,2013-01-30 19:47:00,
2013-01-30 14:52:00,63.5,60.4,29.60,SSE,168,3.0,15.0,90,0.00,,,0.00,meteohub,2013-01-30 19:52:00,
2013-01-30 14:57:00,63.7,60.4,29.60,SSW,206,7.0,15.0,89,0.00,,,0.00,meteohub,2013-01-30 19:57:00,
2013-01-30 15:02:00,63.7,60.4,29.60,SSW,208,6.0,15.0,89,0.00,,,0.00,meteohub,2013-01-30 20:02:00,
2013-01-30 15:07:00,63.7,60.4,29.60,South,175,9.0,13.0,89,0.00,,,0.00,meteohub,2013-01-30 20:07:00,
2013-01-30 15:12:00,63.9,60.6,29.59,SSW,196,5.0,14.0,89,0.00,,,0.00,meteohub,2013-01-30 20:12:00,
2013-01-30 15:17:00,64.0,60.4,29.58,SSW,194,7.0,14.0,88,0.00,,,0.00,meteohub,2013-01-30 20:17:00,
2013-01-30 15:22:00,64.2,60.6,29.58,SSW,196,6.0,14.0,88,0.00,,,0.00,meteohub,2013-01-30 20:22:00,
2013-01-30 15:27:00,64.6,61.0,29.59,SSW,202,9.0,11.0,88,0.00,,,0.00,meteohub,2013-01-30 20:27:00,
2013-01-30 15:32:00,64.6,60.6,29.59,WSW,240,5.0,14.0,87,0.00,,,0.00,meteohub,2013-01-30 20:32:00,
2013-01-30 15:37:00,64.4,60.4,29.59,SSW,192,6.0,17.0,87,0.00,,,0.00,meteohub,2013-01-30 20:37:00,
2013-01-30 15:42:00,64.2,60.3,29.59,South,175,5.0,17.0,87,0.00,,,0.00,meteohub,2013-01-30 20:42:00,
2013-01-30 15:47:00,64.2,60.3,29.59,SSW,205,3.0,17.0,87,0.00,,,0.00,meteohub,2013-01-30 20:47:00,
2013-01-30 15:52:00,64.0,60.1,29.59,SSW,195,8.0,14.0,87,0.00,,,0.00,meteohub,2013-01-30 20:52:00,
2013-01-30 15:57:00,64.0,60.4,29.59,SSW,195,2.0,10.0,88,0.00,,,0.00,meteohub,2013-01-30 20:57:00,
2013-01-30 16:02:00,63.9,60.3,29.59,SW,222,6.0,11.0,88,0.00,,,0.00,meteohub,2013-01-30 21:02:00,
2013-01-30 16:07:00,63.7,60.1,29.61,West,266,4.0,14.0,88,0.00,,,0.00,meteohub,2013-01-30 21:07:00,
2013-01-30 16:12:00,63.1,60.1,29.62,WNW,292,5.0,14.0,90,0.01,,,0.01,meteohub,2013-01-30 21:12:00,
2013-01-30 16:17:00,61.3,58.1,29.62,WNW,292,4.0,14.0,89,0.06,,,0.06,meteohub,2013-01-30 21:17:00,
2013-01-30 16:22:00,60.1,57.4,29.62,NW,315,4.0,14.0,91,0.07,,,0.07,meteohub,2013-01-30 21:22:00,
2013-01-30 16:27:00,59.0,56.7,29.62,NW,321,4.0,9.0,92,0.08,,,0.08,meteohub,2013-01-30 21:27:00,
2013-01-30 16:32:00,58.5,56.1,29.61,NW,321,1.0,6.0,92,0.09,,,0.09,meteohub,2013-01-30 21:32:00,
2013-01-30 16:37:00,57.9,55.9,29.61,NW,321,0.0,6.0,93,0.09,,,0.09,meteohub,2013-01-30 21:37:00,
2013-01-30 16:42:00,57.6,55.8,29.61,NW,321,0.0,6.0,94,0.09,,,0.09,meteohub,2013-01-30 21:42:00,
2013-01-30 16:47:00,57.4,55.6,29.62,West,280,2.0,2.0,94,0.09,,,0.09,meteohub,2013-01-30 21:47:00,
2013-01-30 16:52:00,57.0,55.6,29.61,West,280,0.0,3.0,95,0.09,,,0.09,meteohub,2013-01-30 21:52:00,
2013-01-30 16:57:00,56.8,55.4,29.60,West,280,0.0,3.0,95,0.10,,,0.09,meteohub,2013-01-30 21:57:00,
2013-01-30 17:02:00,56.7,55.2,29.61,West,280,0.0,3.0,95,0.10,,,0.10,meteohub,2013-01-30 22:02:00,
2013-01-30 17:07:00,56.5,55.4,29.61,WSW,248,2.0,2.0,96,0.10,,,0.10,meteohub,2013-01-30 22:07:00,
2013-01-30 17:12:00,56.1,55.0,29.60,WSW,248,0.0,3.0,96,0.09,,,0.10,meteohub,2013-01-30 22:12:00,
2013-01-30 17:18:00,55.8,54.7,29.61,South,188,0.0,4.0,96,0.04,,,0.10,meteohub,2013-01-30 22:18:00,
2013-01-30 17:23:00,55.6,54.5,29.60,NW,311,0.0,4.0,96,0.03,,,0.10,meteohub,2013-01-30 22:23:00,
2013-01-30 17:28:00,55.0,54.1,29.61,SSW,207,0.0,5.0,97,0.02,,,0.10,meteohub,2013-01-30 22:28:00,
2013-01-30 17:33:00,55.0,54.1,29.60,SSW,207,0.0,5.0,97,0.02,,,0.11,meteohub,2013-01-30 22:33:00,
2013-01-30 17:38:00,55.0,54.1,29.61,WNW,283,2.0,5.0,97,0.02,,,0.11,meteohub,2013-01-30 22:38:00,
2013-01-30 17:43:00,54.9,54.0,29.60,South,173,4.0,5.0,97,0.03,,,0.12,meteohub,2013-01-30 22:43:00,
2013-01-30 17:48:00,55.0,54.5,29.59,NNE,24,4.0,5.0,98,0.04,,,0.13,meteohub,2013-01-30 22:48:00,
2013-01-30 17:53:00,54.9,54.3,29.61,SSW,194,2.0,5.0,98,0.04,,,0.13,meteohub,2013-01-30 22:53:00,
2013-01-30 17:58:00,54.9,54.3,29.58,NNE,14,4.0,6.0,98,0.03,,,0.13,meteohub,2013-01-30 22:58:00,
2013-01-30 18:03:00,54.9,54.3,29.61,South,187,1.0,6.0,98,0.04,,,0.14,meteohub,2013-01-30 23:03:00,
2013-01-30 18:08:00,55.0,54.5,29.60,NNW,327,0.0,6.0,98,0.05,,,0.15,meteohub,2013-01-30 23:08:00,
2013-01-30 18:13:00,55.0,54.5,29.60,NW,325,2.0,6.0,98,0.06,,,0.16,meteohub,2013-01-30 23:13:00,
2013-01-30 18:18:00,55.0,54.5,29.59,NW,325,0.0,6.0,98,0.08,,,0.17,meteohub,2013-01-30 23:18:00,
2013-01-30 18:23:00,55.0,54.5,29.58,NW,325,0.0,4.0,98,0.10,,,0.20,meteohub,2013-01-30 23:23:00,
2013-01-30 18:28:00,54.7,54.1,29.58,NW,325,0.0,2.0,98,0.11,,,0.21,meteohub,2013-01-30 23:28:00,
2013-01-30 18:33:00,54.5,54.0,29.58,NW,325,0.0,1.0,98,0.10,,,0.21,meteohub,2013-01-30 23:33:00,
2013-01-30 18:38:00,54.3,53.8,29.58,NW,325,1.0,0.0,98,0.11,,,0.22,meteohub,2013-01-30 23:38:00,
2013-01-30 18:43:00,54.1,53.6,29.57,NW,325,2.0,2.0,98,0.12,,,0.24,meteohub,2013-01-30 23:43:00,
2013-01-30 18:48:00,54.0,53.4,29.58,SW,228,2.0,3.0,98,0.11,,,0.24,meteohub,2013-01-30 23:48:00,
2013-01-30 18:53:00,54.1,53.6,29.57,SW,227,2.0,4.0,98,0.12,,,0.25,meteohub,2013-01-30 23:53:00,
2013-01-30 18:59:00,54.0,53.4,29.57,NNE,32,0.0,4.0,98,0.13,,,0.26,meteohub,2013-01-30 23:59:00,
2013-01-30 19:04:00,54.0,53.6,29.58,SSW,208,0.0,4.0,99,0.12,,,0.26,meteohub,2013-01-31 00:04:00,
2013-01-30 19:09:00,54.0,53.6,29.57,SSW,208,0.0,4.0,99,0.15,,,0.30,meteohub,2013-01-31 00:09:00,
2013-01-30 19:14:00,54.0,53.6,29.56,SSW,207,0.0,4.0,99,0.18,,,0.33,meteohub,2013-01-31 00:14:00,
2013-01-30 19:19:00,54.0,53.6,29.56,SSW,208,0.0,4.0,99,0.18,,,0.35,meteohub,2013-01-31 00:19:00,
2013-01-30 19:24:00,54.0,53.6,29.56,SSW,208,0.0,3.0,99,0.18,,,0.38,meteohub,2013-01-31 00:24:00,
2013-01-30 19:29:00,54.0,53.6,29.55,SSW,208,0.0,3.0,99,0.18,,,0.39,meteohub,2013-01-31 00:29:00,
2013-01-30 19:34:00,54.1,53.8,29.54,SSW,208,3.0,3.0,99,0.19,,,0.40,meteohub,2013-01-31 00:34:00,
2013-01-30 19:39:00,54.0,53.6,29.53,East,81,0.0,3.0,99,0.21,,,0.42,meteohub,2013-01-31 00:39:00,
2013-01-30 19:44:00,54.1,53.8,29.51,East,80,0.0,3.0,99,0.20,,,0.44,meteohub,2013-01-31 00:44:00,
2013-01-30 19:49:00,54.3,54.0,29.52,East,84,0.0,3.0,99,0.21,,,0.45,meteohub,2013-01-31 00:49:00,
2013-01-30 19:54:00,54.3,54.0,29.51,East,83,0.0,3.0,99,0.20,,,0.45,meteohub,2013-01-31 00:54:00,
2013-01-30 19:59:00,54.5,54.1,29.50,East,84,0.0,3.0,99,0.19,,,0.45,meteohub,2013-01-31 00:59:00,
2013-01-30 20:04:00,54.3,54.0,29.50,East,83,0.0,3.0,99,0.19,,,0.45,meteohub,2013-01-31 01:04:00,
2013-01-30 20:09:00,54.3,54.0,29.49,East,84,0.0,2.0,99,0.15,,,0.45,meteohub,2013-01-31 01:09:00,
2013-01-30 20:14:00,54.3,54.0,29.49,East,84,0.0,2.0,99,0.11,,,0.45,meteohub,2013-01-31 01:14:00,
2013-01-30 20:19:00,54.3,54.0,29.48,North,0,2.0,3.0,99,0.09,,,0.45,meteohub,2013-01-31 01:19:00,
2013-01-30 20:24:00,54.0,53.6,29.47,North,5,0.0,3.0,99,0.07,,,0.45,meteohub,2013-01-31 01:24:00,
2013-01-30 20:29:00,53.6,53.2,29.47,ENE,75,0.0,3.0,99,0.06,,,0.45,meteohub,2013-01-31 01:29:00,
2013-01-30 20:34:00,53.4,53.1,29.48,ENE,72,1.0,3.0,99,0.05,,,0.45,meteohub,2013-01-31 01:34:00,
2013-01-30 20:39:00,53.4,53.1,29.49,West,267,4.0,4.0,99,0.02,,,0.45,meteohub,2013-01-31 01:39:00,
2013-01-30 20:44:00,53.8,53.4,29.48,NW,315,3.0,6.0,99,0.01,,,0.45,meteohub,2013-01-31 01:44:00,
2013-01-30 20:49:00,54.0,53.6,29.47,South,185,6.0,8.0,99,0.00,,,0.45,meteohub,2013-01-31 01:49:00,
2013-01-30 20:54:00,54.0,53.6,29.51,WSW,244,2.0,9.0,99,0.00,,,0.45,meteohub,2013-01-31 01:54:00,
2013-01-30 20:59:00,54.1,53.8,29.49,NW,323,4.0,9.0,99,0.02,,,0.46,meteohub,2013-01-31 01:59:00,
2013-01-30 21:04:00,54.0,53.6,29.48,NW,310,0.0,9.0,99,0.08,,,0.53,meteohub,2013-01-31 02:04:00,
2013-01-30 21:09:00,54.0,53.6,29.48,NW,310,0.0,8.0,99,0.12,,,0.56,meteohub,2013-01-31 02:09:00,
2013-01-30 21:14:00,54.0,53.6,29.48,NW,310,0.0,7.0,99,0.20,,,0.64,meteohub,2013-01-31 02:14:00,
2013-01-30 21:19:00,54.0,53.6,29.47,NW,310,0.0,7.0,99,0.24,,,0.69,meteohub,2013-01-31 02:19:00,
2013-01-30 21:24:00,54.0,53.6,29.47,NW,310,0.0,2.0,99,0.26,,,0.71,meteohub,2013-01-31 02:24:00,
2013-01-30 21:29:00,54.0,53.6,29.46,NW,310,0.0,2.0,99,0.26,,,0.71,meteohub,2013-01-31 02:29:00,
2013-01-30 21:34:00,54.0,53.6,29.46,NW,310,0.0,2.0,99,0.27,,,0.72,meteohub,2013-01-31 02:34:00,
2013-01-30 21:39:00,54.0,53.6,29.44,NW,310,0.0,0.0,99,0.27,,,0.72,meteohub,2013-01-31 02:39:00,
2013-01-30 21:44:00,53.6,53.2,29.45,NW,310,0.0,0.0,99,0.28,,,0.73,meteohub,2013-01-31 02:44:00,
2013-01-30 21:49:00,53.4,53.1,29.45,NW,310,0.0,3.0,99,0.29,,,0.74,meteohub,2013-01-31 02:49:00,
2013-01-30 21:55:00,53.2,52.9,29.45,NW,310,1.0,3.0,99,0.29,,,0.74,meteohub,2013-01-31 02:55:00,
2013-01-30 22:00:00,52.9,52.5,29.43,NW,310,1.0,3.0,99,0.28,,,0.75,meteohub,2013-01-31 03:00:00,
2013-01-30 22:05:00,52.9,52.5,29.42,NW,310,0.0,2.0,99,0.23,,,0.76,meteohub,2013-01-31 03:05:00,
2013-01-30 22:10:00,53.1,52.7,29.41,NW,310,0.0,2.0,99,0.20,,,0.77,meteohub,2013-01-31 03:10:00,
2013-01-30 22:15:00,52.9,52.5,29.42,NW,310,0.0,2.0,99,0.12,,,0.77,meteohub,2013-01-31 03:15:00,
2013-01-30 22:20:00,52.5,52.2,29.42,NW,310,2.0,2.0,99,0.08,,,0.77,meteohub,2013-01-31 03:20:00,
2013-01-30 22:25:00,52.5,52.2,29.42,NW,309,2.0,3.0,99,0.06,,,0.77,meteohub,2013-01-31 03:25:00,
2013-01-30 22:30:00,52.9,52.5,29.40,SW,214,0.0,3.0,99,0.08,,,0.79,meteohub,2013-01-31 03:30:00,
2013-01-30 22:35:00,53.1,52.7,29.38,SW,215,1.0,3.0,99,0.07,,,0.80,meteohub,2013-01-31 03:35:00,
2013-01-30 22:40:00,53.2,52.9,29.37,SW,214,0.0,3.0,99,0.08,,,0.80,meteohub,2013-01-31 03:40:00,
2013-01-30 22:45:00,53.1,52.7,29.37,SW,215,0.0,3.0,99,0.07,,,0.80,meteohub,2013-01-31 03:45:00,
2013-01-30 22:50:00,53.1,52.7,29.38,SSE,160,2.0,2.0,99,0.06,,,0.81,meteohub,2013-01-31 03:50:00,
2013-01-30 22:55:00,53.2,52.9,29.36,SSE,160,3.0,5.0,99,0.07,,,0.82,meteohub,2013-01-31 03:55:00,
2013-01-30 23:00:00,53.4,53.4,29.35,SE,137,0.0,5.0,100,0.07,,,0.83,meteohub,2013-01-31 04:00:00,
2013-01-30 23:05:00,53.4,53.4,29.36,NE,52,0.0,5.0,100,0.07,,,0.84,meteohub,2013-01-31 04:05:00,
2013-01-30 23:10:00,53.6,53.6,29.36,ENE,70,0.0,5.0,100,0.08,,,0.85,meteohub,2013-01-31 04:10:00,
2013-01-30 23:15:00,53.6,53.6,29.36,ENE,70,2.0,5.0,100,0.10,,,0.87,meteohub,2013-01-31 04:15:00,
2013-01-30 23:20:00,53.4,53.4,29.36,ENE,70,0.0,3.0,100,0.11,,,0.89,meteohub,2013-01-31 04:20:00,
2013-01-30 23:25:00,53.4,53.4,29.35,ENE,70,2.0,3.0,100,0.13,,,0.92,meteohub,2013-01-31 04:25:00,
2013-01-30 23:30:00,53.4,53.4,29.32,ENE,69,0.0,3.0,100,0.18,,,0.97,meteohub,2013-01-31 04:30:00,
2013-01-30 23:35:00,53.6,53.6,29.31,ENE,69,2.0,3.0,100,0.19,,,0.99,meteohub,2013-01-31 04:35:00,
2013-01-30 23:40:00,53.8,53.8,29.32,ESE,121,0.0,3.0,100,0.21,,,1.01,meteohub,2013-01-31 04:40:00,
2013-01-30 23:45:00,53.8,53.8,29.30,ESE,120,1.0,3.0,100,0.21,,,1.01,meteohub,2013-01-31 04:45:00,
2013-01-30 23:50:00,53.8,53.8,29.29,East,83,2.0,3.0,100,0.21,,,1.02,meteohub,2013-01-31 04:50:00,
2013-01-30 23:55:00,53.6,53.6,29.27,East,83,0.0,3.0,100,0.20,,,1.02,meteohub,2013-01-31 04:55:00,